Overview Statistics Trail Chart Weather Telemetry Raw packets
 

This is the latest recevied weather packets stored in our database for station/object W5ITZ. If no packets are shown the sender has not sent any weather packets the latest 10 day(s).

<< 51 52 53 54 55 56 57 >>
Time Temp. Humidity Pressure Rain* Wind** Luminosity Snow
1787879945 29.44° C 74% 1012.8 hPa 0 mm - 0 W/m² -
1787879640 29.44° C 73% 1012.5 hPa 0 mm - 0 W/m² -
1787879336 29.44° C 72% 1012.7 hPa 0 mm - 0 W/m² -
1787879032 29.44° C 72% 1012.4 hPa 0 mm - 0 W/m² -
1787878732 30° C 71% 1012.5 hPa 0 mm - 1 W/m² -
1787878431 30° C 69% 1012.4 hPa 0 mm - 2 W/m² -
1787878127 30° C 68% 1012.4 hPa 0 mm - 4 W/m² -
1787877823 30.56° C 66% 1012.4 hPa 0 mm - 6 W/m² -
1787877518 30.56° C 64% 1012.5 hPa 0 mm - 7 W/m² -
1787877214 30.56° C 62% 1012.2 hPa 0 mm - 9 W/m² -
1787876913 30.56° C 62% 1012.2 hPa 0 mm - 11 W/m² -
1787876609 31.11° C 61% 1012.2 hPa 0 mm - 13 W/m² -
1787876309 31.11° C 61% 1012.1 hPa 0 mm - 16 W/m² -
1787876007 31.67° C 59% 1011.7 hPa 0 mm - 19 W/m² -
1787875703 31.67° C 58% 1011.8 hPa 0 mm - 25 W/m² -
1787875401 32.22° C 57% 1011.6 hPa 0 mm - 39 W/m² -
1787875095 32.78° C 55% 1011.5 hPa 0 mm - 66 W/m² -
1787874790 32.78° C 53% 1011.4 hPa 0 mm - 76 W/m² -
1787874488 33.33° C 50% 1011.2 hPa 0 mm - 87 W/m² -
1787874183 33.33° C 49% 1011.5 hPa 0 mm - 99 W/m² -
1787873878 33.33° C 49% 1011.1 hPa 0 mm - 111 W/m² -
1787873578 33.89° C 49% 1011.3 hPa 0 mm - 125 W/m² -
1787873273 33.89° C 49% 1011.5 hPa 0 mm - 140 W/m² -
1787872972 33.89° C 50% 1011.4 hPa 0 mm - 156 W/m² -
1787872667 33.89° C 50% 1011.3 hPa 0 mm - 174 W/m² -

* Rain latest hour (hover to see other rain measurements)
** Current wind speed in m/s (hover to see current wind gust speed)